Wind_Speed
5 4 4 3 3 3 3 3 3 4 5 6 7 9 10 12 13 14 15 16 16 17 19 20 21 23 23 24 25 25 26 26 26 25 24 23 22 21 20 19 17 15 13 11
5 4 4 3 3 2 2 2 2 3 4 6 7 9 10 11 13 14 15 15 16 17 18 19 21 22 23 24 24 24 25 25 26 25 25 24 23 22 21 20 19 16 15 13
5 4 4 3 2 1 1 1 2 3 4 6 7 8 10 11 12 13 14 15 15 16 17 19 20 21 22 23 23 24 24 24 25 25 25 24 24 23 23 21 20 19 17 14
5 5 4 3 2 1 1 2 3 4 5 6 7 8 10 11 12 13 14 14 15 16 17 18 19 20 21 22 23 23 24 24 24 24 24 24 23 23 23 22 21 20 19 17
6 5 4 4 3 3 4 4 4 5 6 7 8 9 10 11 12 13 14 14 15 16 17 17 18 19 20 21 22 23 23 24 24 24 23 23 23 23 23 23 22 21 20 19
7 7 6 6 6 6 6 6 6 7 8 9 10 11 11 12 13 13 14 15 15 16 17 18 18 19 19 20 21 22 22 23 23 23 23 22 22 22 23 23 23 21 20 20
10 9 9 8 8 8 9 9 9 9 10 11 11 12 13 13 14 14 15 16 16 17 18 18 19 19 19 20 20 21 21 22 22 22 21 21 21 21 22 22 22 22 21 20
12 12 11 11 11 11 11 11 12 12 12 13 13 14 14 15 15 16 16 17 17 18 19 19 19 20 20 20 20 20 21 21 21 21 20 20 19 20 21 21 21 21 20 19
15 14 14 14 14 14 14 14 15 15 15 16 16 16 17 17 17 18 18 18 19 19 19 20 20 20 20 20 20 20 20 20 20 20 20 19 18 19 19 19 20 20 19 19
17 16 17 17 17 17 17 17 18 18 18 18 18 19 19 19 19 19 20 20 20 20 20 20 20 20 20 20 20 20 20 20 20 20 19 19 18 18 18 18 18 18 18 17
20 20 20 20 20 20 20 20 20 20 20 20 21 21 21 21 21 21 21 21 21 21 21 21 21 21 21 21 21 21 21 21 20 20 20 19 19 18 18 17 17 17 16 16
23 23 23 22 22 22 22 22 22 22 22 22 22 23 23 23 23 23 23 23 23 23 24 24 24 23 23 22 22 22 22 21 21 21 20 20 19 19 18 18 17 17 16 15
26 25 25 25 25 24 24 24 25 25 25 25 25 25 25 25 25 25 25 25 25 26 26 26 26 26 25 25 24 24 23 23 23 22 22 21 21 20 19 19 18 17 17 16
28 28 27 27 27 27 27 27 27 27 27 27 28 28 28 28 28 28 28 28 28 28 28 28 28 28 27 27 26 26 26 25 25 24 24 23 22 22 21 20 19 19 18 17
30 30 30 30 30 30 30 30 30 30 30 30 30 30 30 31 31 30 30 30 31 31 31 31 31 30 30 29 29 28 28 27 27 26 26 26 25 24 24 23 22 21 20 19
33 33 33 33 33 33 33 33 33 33 33 33 33 33 33 33 33 33 33 33 33 33 32 32 33 33 32 32 31 31 30 30 30 29 29 28 28 27 27 26 25 24 23 22
36 36 36 36 36 36 36 36 36 36 36 35 35 35 35 35 35 35 35 34 34 34 34 34 34 34 34 34 33 32 32 32 33 32 32 32 32 31 30 30 29 28 27 26
39 39 39 39 39 39 39 39 39 39 38 38 38 37 37 37 37 36 36 36 36 36 36 36 36 36 35 35 35 35 35 35 35 35 35 35 35 34 34 34 33 33 31 30
41 41 41 42 42 42 42 41 41 41 40 40 39 38 38 38 38 38 38 38 38 39 38 38 38 38 38 38 38 38 38 38 38 38 38 38 38 38 38 37 37 37 37 36
43 43 43 43 43 43 43 43 42 42 41 40 40 39 39 38 38 38 39 39 39 39 40 40 40 40 40 40 41 41 41 41 41 41 41 42 42 42 42 42 42 41 41 41
45 44 44 44 43 43 43 43 43 43 42 41 41 41 40 40 40 40 40 41 41 41 41 41 41 41 42 42 43 43 43 44 44 44 45 45 45 46 46 46 46 46 46 46
45 45 45 45 45 44 44 44 44 44 43 43 42 41 41 41 41 41 42 43 43 42 42 42 43 43 44 45 46 46 47 47 48 48 48 49 49 49 50 50 50 50 50 50
45 45 45 45 45 45 45 45 44 44 43 43 42 42 42 43 43 43 44 43 43 44 44 45 46 47 47 48 49 49 50 50 51 52 52 53 53 53 54 54 54 54 54 54
44 44 45 45 45 45 45 44 44 43 43 43 43 44 44 44 44 44 44 45 45 46 47 48 48 49 50 51 51 52 53 53 54 54 55 55 55 56 56 57 57 57 57 57
43 44 44 44 44 44 43 43 43 43 44 44 44 44 43 44 44 45 46 46 47 48 49 49 50 51 52 53 54 54 55 55 56 56 56 56 56 56 56 57 58 59 59 59
43 43 43 42 42 42 42 43 43 43 43 43 43 43 44 45 45 46 47 48 49 49 50 51 52 53 54 54 55 55 55 56 56 56 56 56 56 56 57 57 57 59 60 60
42 42 42 42 42 42 42 42 42 42 43 43 43 44 45 46 47 47 48 49 50 51 52 53 53 54 54 54 55 55 55 56 56 56 56 56 56 56 56 56 56 57 58 59
Wind_Direction
174 170 162 150 140 124 108 87 63 42 29 21 15 13 11 10 10 10 10 10 11 12 12 12 13 14 15 16 16 17 18 19 19 19 20 20 20 20 18 16 12 8 3 355
175 172 163 152 141 126 104 76 47 27 16 8 6 6 5 6 6 7 8 7 8 9 10 10 11 11 13 14 14 15 15 16 17 18 19 19 20 20 20 18 16 13 9 6
184 181 178 171 173 155 86 31 9 0 357 358 358 359 360 0 1 2 3 4 4 4 6 7 8 9 10 11 13 13 13 14 15 16 18 19 20 20 20 19 18 18 17 14
192 198 207 216 226 250 281 314 331 337 340 342 344 347 350 352 354 356 357 358 358 359 1 3 4 6 7 8 10 11 11 12 13 14 16 17 19 20 20 21 21 20 20 18
206 213 221 231 249 267 281 294 306 314 320 325 330 333 337 341 344 347 350 352 353 354 355 356 358 359 1 4 6 8 9 10 12 13 15 16 18 20 21 21 22 22 22 21
224 230 238 249 259 269 278 287 298 306 312 317 321 324 328 330 333 336 339 341 344 347 348 350 351 352 354 356 359 2 4 6 8 10 13 14 16 17 18 19 20 21 22 23
238 243 249 256 264 271 277 286 292 298 304 308 311 315 319 322 325 328 331 333 336 338 340 342 344 346 348 350 353 355 357 1 3 6 8 10 13 14 15 16 18 20 21 22
246 250 254 260 265 271 276 281 287 292 297 300 304 307 310 314 317 320 324 327 328 330 332 334 336 339 342 344 346 349 351 354 358 0 2 4 6 9 11 14 15 16 19 21
250 254 258 262 266 271 275 280 285 289 292 296 299 303 305 308 311 314 317 319 322 323 325 328 330 332 335 337 340 342 344 346 350 353 355 356 358 0 3 6 9 12 15 17
253 255 259 263 267 271 275 278 283 286 290 293 297 300 302 305 307 309 311 313 315 317 319 322 323 325 328 331 334 336 338 340 341 344 347 348 348 350 353 356 359 3 7 10
255 257 261 264 267 271 274 278 281 285 288 292 295 297 300 302 304 306 307 309 310 311 313 315 317 318 321 323 326 328 330 332 334 336 337 339 341 341 342 345 347 351 354 356
256 259 262 265 268 271 274 277 280 283 287 290 293 295 298 300 301 303 304 306 306 307 308 309 310 311 313 315 316 318 319 321 324 326 328 330 331 332 333 334 335 337 340 342
258 260 262 265 268 270 272 275 279 282 285 288 290 293 295 297 298 300 301 301 302 303 304 305 305 305 306 307 308 309 310 312 313 314 316 319 321 323 324 324 325 325 326 327
258 260 262 264 267 269 272 275 278 281 284 286 288 290 292 293 295 296 297 297 298 299 300 301 301 302 302 303 303 303 303 304 305 306 307 308 309 311 312 314 315 316 316 316
258 260 262 264 267 269 272 275 278 280 282 284 286 288 289 290 292 293 293 294 295 296 297 297 297 298 298 299 299 299 299 299 299 299 299 299 300 301 302 303 304 304 305 305
258 260 263 265 267 269 272 274 276 279 281 283 284 285 287 288 289 290 291 292 293 293 294 295 295 296 296 296 296 296 296 295 295 295 294 293 293 293 293 294 294 295 295 294
258 260 262 264 267 269 271 273 275 277 279 282 283 284 286 287 288 288 289 290 291 292 293 293 294 293 293 293 293 293 293 293 293 292 291 290 289 288 287 287 287 286 286 286
257 259 262 264 266 268 270 272 274 276 278 280 282 283 284 286 286 287 288 289 290 291 292 293 293 292 292 292 292 292 291 290 290 289 289 288 287 286 285 283 282 281 280 279
257 259 261 263 265 267 269 271 273 275 277 279 280 282 283 284 285 286 287 288 290 291 292 292 292 292 292 292 292 291 291 290 288 287 286 285 284 283 282 281 279 277 276 275
257 259 260 262 264 266 268 269 271 274 276 278 279 281 283 284 285 286 287 288 289 290 291 291 291 291 291 292 292 291 291 290 289 287 286 284 282 281 280 278 277 275 273 271
256 257 259 261 263 265 267 269 271 274 275 277 279 280 282 284 285 286 287 288 290 290 291 291 291 291 291 291 291 291 291 290 289 288 286 285 283 281 279 277 275 273 271 269
255 256 258 260 262 264 266 269 271 273 274 276 278 280 281 283 285 286 288 289 289 290 291 291 292 292 292 292 292 292 291 290 289 288 286 285 283 281 279 277 274 272 269 267
254 255 257 259 261 263 266 268 270 271 273 275 277 279 281 283 284 286 288 288 289 290 291 292 293 293 293 293 293 292 292 291 290 289 287 285 283 281 278 276 273 271 269 267
254 255 256 258 260 263 265 267 268 270 272 275 277 279 281 283 284 286 288 289 290 291 292 293 293 294 294 294 294 293 293 292 291 290 288 286 284 281 279 276 273 270 268 266
254 255 256 258 260 262 264 265 268 270 272 275 277 279 281 283 285 287 288 289 291 292 293 293 294 295 295 295 295 295 294 293 292 291 289 287 285 283 280 277 273 270 267 265
254 255 256 258 260 262 264 266 269 271 273 275 277 279 281 284 286 287 289 290 292 293 294 295 296 297 297 297 297 297 296 295 294 292 291 289 288 285 283 279 276 272 268 265
254 255 256 258 260 262 264 267 269 271 273 275 277 280 282 285 287 288 290 291 292 294 295 296 297 298 299 299 299 299 298 297 296 295 293 291 290 288 285 282 279 274 270 265
Height
5874 5874 5875 5875 5875 5875 5875 5875 5874 5874 5872 5871 5869 5867 5865 5862 5859 5856 5853 5850 5846 5842 5839 5834 5830 5825 5820 5815 5810 5804 5799 5793 5787 5782 5777 5772 5767 5763 5758 5754 5750 5746 5743 5740
5873 5874 5874 5874 5875 5874 5874 5874 5874 5873 5872 5870 5869 5867 5864 5862 5859 5856 5853 5850 5847 5843 5839 5835 5831 5826 5821 5816 5811 5806 5801 5795 5790 5784 5779 5774 5769 5764 5760 5756 5751 5747 5743 5740
5873 5873 5873 5874 5874 5874 5874 5873 5873 5872 5872 5869 5868 5866 5864 5861 5859 5856 5853 5850 5847 5843 5839 5835 5831 5827 5822 5818 5813 5807 5802 5797 5792 5786 5781 5776 5771 5766 5762 5757 5753 5748 5744 5740
5871 5873 5873 5875 5873 5873 5873 5872 5871 5871 5870 5868 5867 5865 5863 5861 5858 5855 5853 5849 5846 5843 5839 5835 5832 5827 5823 5819 5814 5809 5804 5799 5793 5788 5783 5778 5773 5769 5764 5759 5754 5750 5746 5742
5870 5871 5871 5872 5871 5871 5871 5871 5870 5869 5868 5867 5865 5863 5862 5859 5857 5854 5852 5849 5845 5842 5839 5835 5831 5828 5824 5819 5815 5810 5805 5800 5795 5790 5785 5781 5776 5771 5766 5762 5757 5752 5748 5744
5868 5869 5870 5871 5870 5869 5870 5869 5868 5867 5866 5865 5863 5862 5860 5858 5855 5853 5850 5847 5844 5841 5838 5834 5831 5827 5823 5819 5815 5811 5806 5801 5797 5792 5787 5783 5778 5774 5769 5764 5760 5755 5750 5746
5865 5866 5867 5867 5866 5867 5868 5868 5865 5864 5863 5862 5861 5859 5858 5855 5853 5851 5848 5845 5843 5840 5836 5833 5830 5826 5823 5819 5815 5811 5807 5802 5798 5793 5789 5784 5780 5776 5771 5767 5762 5757 5753 5749
5862 5863 5865 5864 5863 5864 5864 5862 5862 5861 5860 5859 5857 5856 5854 5852 5850 5848 5845 5843 5840 5837 5834 5831 5828 5825 5821 5818 5814 5810 5807 5802 5798 5794 5790 5786 5782 5778 5773 5769 5765 5760 5756 5752
5859 5861 5860 5859 5859 5859 5858 5858 5857 5857 5856 5855 5853 5852 5850 5848 5846 5844 5842 5840 5837 5834 5831 5829 5826 5823 5819 5816 5813 5809 5806 5802 5798 5794 5790 5786 5783 5779 5775 5771 5767 5763 5759 5755
5853 5854 5854 5854 5854 5854 5853 5853 5852 5852 5851 5850 5849 5847 5846 5844 5842 5840 5838 5835 5833 5830 5828 5825 5822 5820 5817 5814 5811 5807 5804 5801 5797 5793 5790 5786 5783 5779 5775 5772 5768 5764 5761 5757
5847 5848 5848 5848 5848 5848 5848 5847 5847 5846 5845 5844 5843 5842 5840 5839 5837 5835 5833 5831 5828 5826 5823 5821 5818 5816 5813 5810 5808 5805 5801 5798 5795 5792 5788 5785 5782 5778 5775 5772 5768 5765 5762 5759
5841 5841 5842 5842 5842 5842 5841 5841 5840 5840 5839 5838 5837 5836 5834 5833 5831 5829 5827 5825 5823 5820 5818 5816 5813 5811 5808 5806 5803 5801 5798 5795 5792 5789 5786 5783 5780 5777 5773 5770 5767 5764 5761 5758
5833 5833 5834 5834 5834 5834 5834 5834 5833 5833 5832 5831 5830 5829 5827 5826 5824 5822 5820 5818 5816 5814 5812 5809 5807 5804 5802 5800 5798 5795 5793 5790 5787 5785 5782 5779 5776 5774 5771 5768 5765 5762 5760 5757
5824 5825 5825 5826 5826 5826 5826 5826 5825 5825 5824 5823 5822 5821 5820 5818 5817 5815 5813 5811 5809 5806 5804 5802 5799 5797 5795 5793 5791 5788 5786 5784 5781 5779 5777 5774 5772 5769 5767 5765 5762 5760 5757 5755
5816 5816 5817 5817 5817 5817 5817 5817 5817 5816 5816 5815 5814 5813 5811 5810 5808 5806 5805 5802 5800 5798 5796 5794 5791 5789 5787 5785 5783 5781 5778 5776 5774 5772 5770 5768 5766 5763 5761 5759 5757 5755 5753 5751
5806 5806 5807 5808 5808 5808 5808 5808 5807 5807 5806 5805 5804 5803 5802 5800 5799 5797 5795 5793 5791 5789 5786 5784 5782 5780 5778 5776 5774 5772 5770 5768 5766 5764 5762 5760 5758 5756 5754 5752 5751 5749 5747 5746
5796 5796 5797 5797 5797 5798 5797 5797 5797 5796 5796 5795 5794 5793 5791 5790 5788 5786 5785 5783 5781 5778 5776 5774 5772 5770 5768 5766 5764 5762 5760 5758 5756 5754 5752 5750 5749 5747 5745 5744 5742 5741 5740 5738
5784 5785 5785 5786 5786 5786 5786 5786 5786 5785 5785 5784 5783 5782 5780 5779 5777 5775 5773 5771 5769 5767 5765 5763 5761 5759 5757 5755 5753 5751 5749 5747 5745 5743 5741 5740 5738 5736 5735 5733 5732 5731 5730 5729
5771 5772 5773 5773 5774 5774 5774 5774 5773 5773 5773 5772 5771 5770 5769 5767 5765 5764 5762 5760 5758 5756 5754 5751 5749 5747 5745 5743 5741 5739 5737 5735 5733 5731 5729 5728 5726 5724 5723 5721 5720 5719 5718 5717
5758 5759 5759 5760 5760 5761 5761 5761 5761 5760 5760 5759 5759 5758 5756 5755 5753 5752 5750 5748 5746 5744 5742 5739 5737 5734 5732 5730 5728 5725 5723 5721 5719 5717 5715 5713 5712 5710 5709 5707 5706 5705 5704 5704
5743 5744 5745 5746 5747 5747 5748 5748 5748 5747 5747 5746 5746 5745 5744 5742 5741 5739 5737 5735 5733 5731 5729 5726 5724 5721 5719 5716 5714 5711 5709 5706 5704 5702 5700 5698 5696 5694 5693 5691 5690 5689 5688 5688
5729 5730 5731 5732 5733 5734 5734 5734 5734 5734 5734 5733 5733 5732 5731 5729 5728 5726 5724 5722 5720 5717 5715 5712 5710 5707 5704 5702 5699 5696 5693 5691 5688 5685 5683 5680 5678 5676 5675 5673 5672 5671 5670 5669
5714 5716 5717 5718 5719 5720 5720 5721 5721 5721 5720 5720 5719 5719 5717 5716 5714 5713 5711 5708 5706 5703 5701 5698 5695 5692 5689 5686 5683 5680 5676 5673 5670 5667 5664 5661 5659 5656 5654 5652 5651 5650 5649 5649
5700 5702 5703 5704 5705 5706 5707 5707 5707 5707 5707 5707 5706 5705 5704 5702 5700 5699 5696 5694 5692 5689 5686 5683 5680 5677 5673 5670 5666 5662 5658 5655 5651 5647 5644 5640 5637 5634 5632 5630 5628 5627 5627 5627
5686 5687 5689 5690 5691 5692 5693 5693 5693 5693 5693 5693 5692 5691 5690 5688 5687 5685 5682 5680 5677 5674 5671 5667 5664 5660 5656 5652 5648 5643 5639 5635 5630 5626 5622 5618 5615 5611 5608 5606 5604 5603 5603 5603
5671 5673 5675 5676 5677 5678 5679 5679 5680 5679 5679 5679 5678 5677 5676 5674 5672 5670 5667 5665 5662 5658 5655 5651 5647 5643 5638 5634 5629 5624 5619 5615 5610 5605 5601 5596 5592 5589 5585 5582 5580 5578 5577 5578
5657 5659 5661 5662 5663 5664 5665 5665 5665 5665 5665 5664 5664 5663 5661 5660 5657 5655 5652 5649 5646 5642 5638 5634 5630 5625 5620 5616 5610 5605 5600 5594 5589 5584 5579 5575 5570 5566 5562 5559 5556 5554 5552 5553